{"data":{"norad_id":57868,"epoch":"2026-05-24T21:44:06.832896Z","epoch_age_seconds":83507,"freshness":"FRESH","line1":"1 57868U 23144E   26144.90563464  .00000031  00000+0  10655-4 0  9996","line2":"2 57868  43.0021 214.7365 0001395 273.2882  86.7810 15.27575476149254","mean_motion":15.27575476,"eccentricity":0.0001395,"inclination_deg":43.0021,"raan_deg":214.7365,"arg_perigee_deg":273.2882,"mean_anomaly_deg":86.781,"bstar":1.0655e-5,"rev_number":14925,"period_min":94.267027889887,"perigee_km":482.10550520645,"apogee_km":484.01977990672,"semimajor_km":6861.1996425566,"source":"CELESTRAK","updated_at":"2026-05-25T13:38:18.446396Z"}}